This is the latest recevied weather packets stored in our database for station/object 4S6DRJ-13. If no packets are shown the sender has not sent any weather packets the latest 10 day(s).
| Time | Temp. | Humidity | Pressure | Rain* | Wind** | Luminosity | Snow |
|---|---|---|---|---|---|---|---|
| 1788353120 | 28.33° C | 84% | 1008.7 hPa | 0 mm | 0.89 m/s, 224° | 6 W/m² | - |
| 1788353059 | 28.33° C | 84% | 1008.4 hPa | 0 mm | 1.34 m/s, 170° | 7 W/m² | - |
| 1788352998 | 28.33° C | 84% | 1008.4 hPa | 0 mm | 0.89 m/s, 249° | 8 W/m² | - |
| 1788352937 | 28.33° C | 84% | 1008.5 hPa | 0 mm | 0.89 m/s, 189° | 9 W/m² | - |
| 1788352876 | 28.33° C | 83% | 1008.4 hPa | 0 mm | 1.34 m/s, 258° | 10 W/m² | - |
| 1788352815 | 28.33° C | 83% | 1008.6 hPa | 0 mm | 1.34 m/s, 203° | 12 W/m² | - |
| 1788352754 | 28.33° C | 83% | 1008.4 hPa | 0 mm | 0.89 m/s, 241° | 12 W/m² | - |
| 1788352693 | 28.33° C | 83% | 1008.3 hPa | 0 mm | 0.89 m/s, 17° | 13 W/m² | - |
| 1788352632 | 28.33° C | 83% | 1008.3 hPa | 0 mm | 2.24 m/s, 179° | 16 W/m² | - |
| 1788352571 | 28.33° C | 83% | 1008.3 hPa | 0 mm | 0.45 m/s, 271° | 17 W/m² | - |
| 1788352510 | 28.33° C | 83% | 1008.4 hPa | 0 mm | 0.89 m/s, 209° | 19 W/m² | - |
| 1788352449 | 28.33° C | 83% | 1008.4 hPa | 0 mm | 1.34 m/s, 224° | 21 W/m² | - |
| 1788352388 | 28.33° C | 83% | 1008.3 hPa | 0 mm | 0.45 m/s, 177° | 23 W/m² | - |
| 1788352327 | 28.33° C | 83% | 1008.3 hPa | 0 mm | 0.89 m/s, 243° | 25 W/m² | - |
| 1788352266 | 28.33° C | 83% | 1008.4 hPa | 0 mm | 1.34 m/s, 157° | 28 W/m² | - |
| 1788352205 | 28.33° C | 82% | 1008.2 hPa | 0 mm | 0.89 m/s, 230° | 30 W/m² | - |
| 1788352144 | 28.33° C | 82% | 1008.2 hPa | 0 mm | 2.68 m/s, 228° | 32 W/m² | - |
| 1788352083 | 28.33° C | 82% | 1008.2 hPa | 0 mm | 0.89 m/s, 184° | 35 W/m² | - |
| 1788352022 | 28.89° C | 82% | 1008.1 hPa | 0 mm | 1.79 m/s, 250° | 34 W/m² | - |
| 1788351962 | 28.89° C | 82% | 1008.1 hPa | 0 mm | 1.34 m/s, 297° | 34 W/m² | - |
| 1788351900 | 28.89° C | 82% | 1008.2 hPa | 0 mm | 1.79 m/s, 238° | 36 W/m² | - |
| 1788351839 | 28.89° C | 82% | 1008 hPa | 0 mm | 0.89 m/s, 195° | 40 W/m² | - |
| 1788351789 | 28.89° C | 82% | 1008.1 hPa | 0 mm | 1.34 m/s, 241° | 42 W/m² | - |
| 1788351717 | 28.89° C | 82% | 1008 hPa | 0 mm | 0.89 m/s, 292° | 44 W/m² | - |
| 1788351656 | 28.89° C | 82% | 1008.1 hPa | 0 mm | 1.79 m/s, 216° | 46 W/m² | - |
* Rain latest hour (hover to see other rain measurements)
** Current wind speed in m/s (hover to see current wind gust speed)